Tracking 30995 objects as of 7-Jul-2025
HD Live streaming from Space Station
objects crossing your sky now

ATLAS D R/B

Track ATLAS D R/B now!
10-day predictions


NORAD ID: 2328
Int'l Code: 1966-063C
Perigee: 999.4 km
Apogee: 1,014.4 km
Inclination: 144.2 °
Period: 105.1 minutes
Semi major axis: 7377 km
RCS: 1.0156 m2 (large)
Launch date: July 14, 1966
Source: United States (US)
Launch site: AIR FORCE WESTERN TEST RANGE (AFWTR)

Note: This is a ROCKET BODY
Your satellite tracking list
STARLINK-4354
Track 1 satellite(s)




NASA's NSSDC Master Catalog

Two Line Element Set (TLE):
1  2328U 66063C   25187.57499174  .00000268  00000-0  23547-4 0  9996
2  2328 144.2288 156.2634 0010175 320.3383 151.5265 13.69953962953341
Source of the keplerian elements: AFSPC